Theta_e
312 313 314 314 313 313 313 313 313 313 313 313 312 312 313 313 310 310 311 308 307 312 314 313 313 313 314 314 314 313 310 310 312 312 312 313 312 312 312 311 311 311 312 311 309 307 306 305 306 306 307 308 311 316 321 324 326 327 329 330 330 330 330 331 331 332 332 331 331 330 330 331 331 331 331 332 333 333 332 331 331 331 331 330 330 330
312 313 314 314 313 312 310 309 309 310 312 312 311 311 313 313 311 310 311 308 306 311 313 312 313 314 314 315 315 314 312 311 312 312 313 312 312 312 311 311 311 311 311 310 309 308 306 305 305 305 306 307 308 311 315 318 322 325 327 328 329 329 329 330 330 331 331 331 331 331 330 330 330 331 330 331 331 332 332 332 332 332 331 331 331 331
313 314 314 310 308 308 307 308 310 310 312 312 312 311 311 312 312 310 310 309 307 311 314 313 313 315 316 315 314 313 311 311 310 309 310 310 310 310 310 310 310 309 310 310 309 308 307 305 305 304 305 306 307 308 309 311 316 321 324 325 327 328 328 328 329 330 331 331 331 331 331 331 331 331 331 331 330 331 331 332 332 332 331 331 330 330
313 313 310 306 307 309 309 309 311 312 311 313 313 311 311 313 313 311 311 310 307 308 311 312 313 315 315 313 311 308 305 307 306 304 305 305 306 307 308 308 307 307 309 309 309 308 308 308 307 306 305 305 305 306 307 308 311 315 318 321 324 326 327 327 327 328 329 330 330 330 330 330 331 330 330 331 330 330 330 330 331 331 331 332 332 332
312 309 304 304 308 311 310 310 312 312 311 314 316 313 313 314 314 312 311 309 308 307 308 310 312 312 313 312 311 308 305 306 306 306 307 307 307 307 308 310 309 308 308 308 308 310 311 310 310 308 306 305 305 305 306 306 307 309 312 315 317 320 324 325 326 326 327 328 328 329 329 329 329 329 329 329 329 329 330 330 330 330 330 330 331 331
311 305 302 306 309 311 311 312 315 314 312 313 316 315 313 312 313 313 312 311 311 311 308 308 309 309 312 312 311 309 308 309 309 310 311 310 310 310 311 313 312 311 309 307 308 311 311 311 311 310 307 306 305 305 306 306 306 307 307 309 311 315 320 322 323 325 325 326 327 328 329 330 330 329 329 329 328 327 328 328 328 329 329 328 329 329
308 303 305 309 311 313 313 312 315 316 312 311 313 313 311 313 316 314 313 313 312 311 309 307 309 309 310 312 311 309 309 311 311 311 312 311 311 311 312 312 312 312 311 311 311 312 312 312 312 312 309 307 307 306 306 306 306 306 307 308 310 314 317 319 321 323 324 325 326 327 328 328 328 328 328 328 328 327 327 327 327 327 327 328 328 328
306 305 307 310 312 314 313 312 314 314 311 313 313 311 311 315 318 316 315 314 313 313 310 310 312 310 309 311 311 308 310 312 312 312 312 311 311 311 311 311 311 311 311 312 313 312 313 312 311 311 309 308 307 307 306 307 307 307 308 310 312 315 317 319 321 323 323 324 325 326 326 326 326 327 327 327 327 327 326 326 326 326 326 326 326 326
308 310 311 311 313 313 313 315 314 313 313 314 310 310 312 315 318 318 316 314 312 312 312 312 313 309 309 313 311 308 310 312 312 312 311 311 311 311 311 311 310 310 310 310 311 312 312 312 310 309 309 308 308 309 308 308 309 309 310 312 314 316 318 319 321 322 323 323 324 325 325 325 325 325 326 326 325 325 325 325 325 325 325 325 325 325
310 310 310 311 313 313 312 310 311 316 316 311 307 310 313 314 315 317 315 312 311 311 312 312 310 308 309 314 313 309 309 312 312 311 310 310 310 310 311 310 310 310 310 310 310 311 311 310 309 308 308 309 309 310 311 312 312 313 314 315 316 318 319 320 321 321 322 323 324 324 325 325 325 325 325 324 324 323 323 323 323 324 324 324 324 324
308 308 310 312 312 310 308 306 308 313 312 309 311 313 314 313 313 313 311 310 310 311 311 308 307 308 307 311 314 310 308 310 312 311 310 311 310 310 310 310 310 309 310 310 310 311 310 309 309 309 309 309 310 311 312 314 315 316 317 318 319 320 320 321 321 322 322 323 323 324 324 324 324 324 324 323 323 322 322 322 322 323 322 322 322 323
310 310 311 311 308 308 309 308 307 307 307 310 315 314 313 313 313 312 311 311 311 311 308 304 305 308 307 309 311 309 307 308 311 312 311 311 311 310 310 309 309 309 309 310 310 311 311 311 310 310 310 309 309 310 311 313 314 315 317 318 319 319 320 321 321 322 322 322 323 323 323 323 323 323 322 322 322 322 322 321 321 321 321 320 320 321
314 313 311 309 307 308 313 312 308 308 309 312 314 313 313 313 312 313 313 311 312 310 306 304 306 308 309 310 309 308 308 308 310 312 311 311 311 310 310 309 309 309 309 309 310 310 311 311 311 310 310 309 308 309 309 310 311 312 313 314 314 314 315 316 316 317 318 318 319 320 320 320 320 320 320 320 320 320 320 320 319 319 319 319 318 319
315 315 312 312 311 309 312 313 311 312 311 312 315 313 312 313 313 313 311 309 310 308 305 304 307 308 310 310 310 310 310 308 307 307 309 310 310 310 309 308 309 309 308 309 309 309 309 310 309 309 309 309 308 309 310 310 310 311 311 311 311 311 311 311 311 312 312 312 313 314 314 314 314 315 315 316 316 316 316 316 317 317 317 317 317 317
316 315 313 313 312 310 311 312 312 314 312 313 316 315 313 314 313 312 311 310 310 309 306 305 307 310 310 308 308 308 308 307 305 304 306 308 308 308 308 308 309 308 308 308 308 308 308 308 308 308 307 307 307 308 309 309 310 310 310 310 310 310 310 310 310 310 310 310 310 310 310 311 311 311 311 311 311 311 312 312 313 313 313 314 315 315
315 313 311 310 309 310 312 311 311 313 313 312 312 312 312 313 312 309 307 308 308 308 309 307 308 311 310 308 307 306 306 306 304 304 306 307 307 308 309 309 309 308 308 308 308 307 307 307 307 307 306 306 306 306 307 308 309 309 309 309 309 309 309 309 309 309 309 309 309 309 309 309 309 309 309 309 309 309 309 310 310 310 310 310 311 311
313 312 311 310 309 309 312 311 310 312 314 311 311 312 310 311 314 309 304 304 305 308 310 310 311 311 309 309 308 306 307 306 305 305 306 307 308 309 311 310 309 308 308 307 307 307 307 306 306 306 305 305 305 305 305 306 307 308 308 308 308 308 308 308 309 308 308 309 308 308 308 308 308 308 308 308 308 308 308 308 308 308 308 308 308 308
314 313 312 313 312 309 309 310 309 310 312 311 313 312 308 309 312 310 308 307 307 308 309 308 309 309 308 308 308 308 309 308 306 306 306 309 310 310 311 310 309 308 307 306 306 306 306 306 305 304 304 303 303 304 304 305 306 307 307 308 308 308 308 308 308 308 308 308 308 308 308 308 308 308 308 307 308 308 308 307 307 307 307 307 307 307
317 314 311 311 312 311 310 312 311 310 310 310 311 311 309 311 311 308 309 310 309 310 310 307 306 307 309 309 309 309 310 309 307 307 307 310 311 311 310 309 308 307 307 306 305 306 306 305 305 304 303 303 302 303 304 305 305 306 307 307 307 307 307 307 308 308 308 308 308 308 308 307 307 307 307 307 307 307 307 307 307 307 307 307 306 307
317 316 313 311 311 311 311 313 314 313 309 307 307 308 310 312 311 309 309 309 310 309 309 308 306 307 310 310 309 310 311 309 308 307 309 310 310 311 310 309 309 308 307 307 305 305 305 304 304 303 303 302 302 302 303 304 304 305 305 306 306 306 306 306 307 307 307 307 307 307 307 307 307 307 306 306 306 306 306 307 306 306 306 306 306 306
314 314 315 312 311 312 313 313 315 315 311 308 308 309 310 310 309 309 308 307 308 309 308 308 307 308 310 309 309 310 310 309 308 308 310 311 310 311 310 310 309 308 307 306 305 305 305 304 303 302 302 302 302 303 303 304 304 305 305 305 305 306 306 306 306 306 306 307 306 306 306 306 306 307 306 306 306 306 306 306 306 306 306 306 305 305
312 312 316 314 312 314 314 311 310 312 313 311 310 310 312 311 310 311 311 307 306 307 307 307 308 309 309 306 306 307 307 308 309 310 311 311 310 310 310 309 308 307 306 305 305 305 305 304 303 302 302 302 302 303 303 304 304 305 305 305 306 306 306 306 307 307 306 307 306 306 306 306 306 306 306 306 306 306 306 306 306 306 306 306 305 305
314 314 315 314 313 313 311 307 304 307 312 311 310 311 312 312 311 312 312 310 306 304 305 305 308 310 308 303 302 304 303 304 308 311 310 310 309 309 309 308 306 306 305 304 304 305 304 304 303 303 303 302 302 302 303 304 304 304 305 305 305 305 305 306 306 306 306 306 306 306 306 306 306 306 305 305 305 306 306 305 305 306 306 305 305 305
315 316 315 312 312 311 309 308 306 307 311 311 310 311 311 312 313 311 311 311 309 307 307 307 309 311 310 304 302 303 301 301 305 310 310 309 309 309 308 307 305 305 304 304 304 304 304 304 303 303 303 302 302 302 302 303 303 304 304 305 305 305 304 305 305 305 305 305 305 305 305 305 305 305 305 305 305 305 305 305 305 305 305 305 305 305
313 316 316 313 313 314 312 312 311 310 310 311 312 312 311 313 313 309 308 310 310 310 310 310 310 311 310 306 304 304 302 301 304 308 310 309 309 308 307 306 305 305 305 304 304 304 304 304 304 303 303 302 301 301 301 302 302 303 304 304 305 304 304 304 304 305 305 304 305 304 304 304 304 304 304 304 304 304 304 304 304 304 304 304 304 304
314 317 316 314 316 316 315 315 316 315 312 312 315 314 313 313 312 311 310 310 310 311 310 310 311 310 309 308 306 303 301 302 305 307 308 308 309 308 307 306 306 306 306 305 305 305 304 304 303 302 302 301 300 300 300 300 301 302 303 304 304 304 304 304 304 304 304 303 303 303 303 303 303 303 303 302 303 303 303 303 303 303 303 303 303 303
317 318 314 314 316 315 316 317 318 318 316 314 316 316 314 312 312 314 313 310 311 311 309 311 314 312 309 309 308 304 303 305 306 306 307 307 308 308 307 307 307 306 306 305 305 304 304 303 303 302 301 300 299 299 299 300 301 302 303 303 303 303 303 303 303 303 303 302 302 302 301 301 301 301 301 301 301 301 301 301 301 301 301 301 301 301
316 315 314 315 316 315 317 317 317 318 317 316 316 316 314 312 312 314 314 313 314 312 310 313 316 314 311 310 309 307 305 307 307 306 307 307 307 307 307 306 306 306 305 304 304 304 303 303 302 301 300 299 299 299 300 299 300 301 302 302 302 303 302 302 302 302 302 301 301 301 300 300 300 300 300 300 300 300 300 300 300 300 300 300 300 300
315 313 315 315 314 315 315 314 315 316 315 316 317 316 314 312 312 314 314 315 315 313 313 316 316 313 311 310 310 308 307 308 308 307 307 307 307 307 306 306 306 306 305 304 304 304 303 303 302 302 300 299 299 299 298 298 298 300 301 301 301 302 301 301 301 301 300 300 300 300 300 299 299 299 299 299 298 299 299 299 299 299 299 299 299 299
315 314 317 315 312 314 314 313 315 315 315 316 317 316 313 312 312 313 314 315 314 314 315 317 316 314 312 311 310 309 308 309 309 308 307 307 307 307 306 307 307 306 305 305 304 303 302 302 301 300 299 299 298 298 297 297 297 298 299 300 300 300 300 300 300 299 299 299 299 299 298 298 298 298 298 297 297 297 297 297 298 298 298 299 299 299
312 315 318 314 311 314 314 312 312 313 314 316 316 315 313 312 313 313 313 314 314 314 315 315 315 313 312 312 312 310 309 309 308 307 307 307 308 307 307 308 307 306 306 305 304 303 301 301 300 299 298 298 297 297 296 296 297 298 298 298 299 299 298 299 298 298 298 297 297 297 297 297 296 296 296 296 296 296 297 297 297 298 298 298 298 298
311 314 316 313 312 315 313 311 311 311 312 314 315 314 313 312 313 313 314 314 314 314 315 313 313 312 311 312 313 310 308 308 308 307 307 308 309 308 308 309 308 307 306 304 303 302 301 300 300 299 298 298 297 296 296 296 296 297 298 297 297 297 297 297 297 296 296 296 296 296 295 295 295 295 295 295 295 295 295 296 296 296 297 297 298 298
313 312 313 312 312 313 309 308 311 311 311 312 313 314 313 313 313 312 314 315 313 314 314 312 312 312 311 312 313 311 308 307 308 308 308 309 309 308 308 309 308 306 305 304 302 301 300 300 300 299 298 297 296 295 295 296 296 296 297 297 296 296 296 296 295 295 294 294 294 294 294 293 293 293 293 293 294 294 294 294 294 295 295 296 297 297
315 314 312 312 313 314 306 307 312 311 311 312 313 314 314 312 313 313 313 313 312 312 312 312 313 313 312 312 313 313 311 309 308 308 309 310 310 308 307 307 307 306 304 303 301 301 300 300 298 297 297 295 295 295 295 296 296 296 296 295 295 295 294 294 293 293 293 293 293 293 293 292 292 292 292 292 292 292 292 292 293 293 294 294 295 295
315 313 311 310 311 311 306 308 311 312 312 314 315 314 312 311 311 313 314 312 311 311 312 313 312 311 312 312 312 312 311 311 310 309 309 310 309 308 308 307 305 304 303 301 300 300 300 299 298 297 295 294 294 294 295 295 295 295 294 293 293 293 292 292 292 292 292 292 292 292 292 291 291 291 291 291 291 291 291 291 292 292 292 293 293 294
313 313 310 308 309 309 308 309 312 313 314 316 314 310 309 310 311 312 314 313 311 311 311 312 311 311 312 311 311 314 313 311 311 310 309 308 308 308 309 308 303 302 302 301 300 299 299 297 297 296 294 293 294 294 294 294 294 293 292 292 291 291 291 291 291 291 291 291 291 291 291 291 291 291 291 291 291 291 291 291 291 291 292 292 292 293
311 312 311 310 310 311 311 311 312 313 315 316 315 310 307 309 310 311 313 312 311 310 310 310 310 312 312 311 311 312 310 308 310 311 307 304 305 307 307 305 302 301 301 300 299 298 297 296 295 294 293 293 293 293 293 293 292 292 291 291 291 290 290 290 290 290 290 290 290 290 290 290 290 290 290 290 290 291 291 291 291 291 291 291 292 292
311 313 314 313 311 311 312 312 312 314 314 315 317 313 309 310 311 310 311 313 312 311 310 310 310 311 312 312 311 309 308 308 311 313 310 303 300 301 302 301 300 299 298 297 296 296 295 294 293 292 292 291 291 291 292 291 291 291 290 290 290 290 290 290 290 290 290 290 290 290 290 290 290 290 290 290 290 290 290 290 291 291 291 291 291 292
313 314 314 314 312 311 312 313 313 314 313 314 317 314 310 310 311 310 311 312 314 313 311 309 310 311 313 313 310 309 310 310 312 314 311 302 298 299 299 298 297 297 296 296 295 295 294 292 291 291 290 290 290 290 290 290 290 290 290 289 289 290 290 290 290 290 290 290 289 289 289 289 289 289 289 289 289 290 290 290 290 290 290 291 291 291
313 314 313 313 314 313 313 313 314 314 314 315 314 311 308 309 311 313 314 314 315 316 313 309 310 312 311 311 309 309 311 312 313 312 307 299 297 298 298 297 296 295 295 294 294 293 292 291 290 289 288 288 288 289 289 290 289 290 289 288 289 289 289 289 289 289 289 289 289 289 289 289 289 289 289 289 289 289 289 289 290 290 290 290 290 291
312 313 313 314 315 314 314 314 314 314 316 316 312 308 308 311 312 315 317 315 314 315 311 308 309 310 309 309 309 310 311 311 311 307 301 297 297 297 296 296 295 294 293 293 292 291 290 289 288 287 287 287 287 288 289 289 289 289 289 288 288 287 287 288 288 288 288 288 288 288 288 288 288 288 288 288 288 288 289 289 289 289 289 289 289 289
313 313 313 314 315 315 315 315 315 316 317 314 309 305 307 312 314 316 315 312 312 312 309 307 309 309 309 308 308 310 310 306 302 300 298 297 296 295 295 294 293 292 292 291 291 290 289 288 287 286 286 286 286 287 288 288 288 288 288 287 286 286 286 287 287 288 288 287 287 288 288 287 287 287 287 288 287 288 288 288 288 288 288 287 287 287
313 314 314 314 315 315 316 316 317 317 314 311 309 307 308 312 315 315 313 310 309 309 309 308 308 308 308 307 307 309 307 301 299 298 297 296 295 294 294 294 292 292 291 290 289 289 288 287 286 285 284 284 285 286 287 287 288 288 287 285 285 285 286 286 286 286 286 286 287 287 287 287 287 287 287 287 287 287 287 288 288 287 287 286 285 285
314 314 314 314 314 315 315 316 317 316 311 309 312 311 309 310 312 312 312 313 311 307 306 308 308 307 307 307 306 305 303 300 298 297 296 295 295 294 294 293 292 291 289 288 287 287 287 286 284 283 283 283 284 285 286 286 287 287 285 283 283 284 285 284 284 284 284 285 286 287 287 287 287 287 287 287 286 286 286 286 286 285 284 284 283 283
312 312 314 315 314 314 314 314 315 314 310 308 311 313 311 311 311 311 312 315 315 309 304 307 309 306 303 305 304 302 301 298 297 297 296 295 294 293 293 291 290 289 287 285 285 285 285 285 284 283 282 282 283 284 284 284 285 285 283 282 282 282 281 280 280 280 280 282 283 285 285 286 286 286 285 284 283 283 283 283 283 282 282 282 282 282
308 308 310 313 313 313 313 312 312 311 309 308 308 309 310 310 309 309 310 313 314 310 304 306 308 304 300 302 303 300 299 298 296 296 295 294 293 292 291 289 287 286 285 283 283 283 284 284 284 283 281 280 282 283 283 283 284 283 282 281 281 279 278 277 277 276 277 278 279 281 282 282 283 282 282 281 280 279 279 280 280 281 281 281 282 282
307 306 308 310 312 313 314 313 311 310 309 308 306 305 305 306 305 305 309 311 309 305 302 302 303 300 298 301 301 299 297 297 296 295 294 293 292 291 290 288 286 284 283 282 281 282 282 283 283 282 281 279 280 282 282 282 282 280 279 278 277 276 275 275 275 275 275 275 277 278 278 278 278 278 278 278 277 277 278 279 279 280 281 281 281 282
307 306 308 310 310 310 311 310 308 305 303 301 301 302 305 307 305 301 301 302 300 298 298 298 298 298 299 300 300 299 297 296 296 295 293 292 291 290 289 286 284 282 280 279 280 280 281 281 281 281 280 279 278 279 280 279 278 277 276 275 275 274 274 274 274 273 273 274 274 275 275 275 275 275 275 275 275 276 277 278 278 279 280 280 281 281
304 305 307 308 308 308 308 307 304 303 303 302 302 302 303 305 304 301 297 297 297 298 298 297 296 297 299 299 299 298 297 296 295 294 292 291 290 288 286 284 281 279 278 278 278 279 279 279 279 279 279 277 277 277 278 276 275 274 273 273 273 273 273 273 272 272 272 273 273 273 273 273 273 273 274 274 275 275 276 277 277 278 278 279 280 280
302 305 305 306 308 308 308 308 306 306 308 308 306 304 302 300 300 301 301 300 300 299 298 296 295 294 295 297 297 297 296 295 293 292 292 290 288 286 283 281 279 277 276 276 276 276 276 277 277 277 276 275 275 276 276 274 273 272 272 272 272 272 272 271 271 271 272 272 272 272 272 272 272 273 273 274 274 275 275 276 276 277 277 278 279 279
302 304 304 305 307 306 306 307 305 305 307 308 305 302 300 297 298 303 303 301 299 296 295 297 298 295 293 293 294 295 296 293 291 291 290 287 285 283 280 278 277 276 275 274 274 274 274 274 274 274 273 272 273 273 273 272 271 271 271 271 271 271 270 270 270 271 271 271 271 271 271 271 272 272 273 273 274 274 275 275 276 276 277 277 278 279
Wind_Speed
1 5 7 6 9 10 7 3 3 4 6 9 7 3 4 3 2 1 2 3 1 3 4 4 6 10 10 10 11 4 2 4 8 7 7 6 6 4 4 5 6 7 7 5 6 7 8 9 9 10 11 13 16 19 22 23 25 25 22 21 21 19 18 20 21 20 18 19 20 22 23 23 22 23 25 25 25 26 27 26 26 27 27 26 25 25
2 7 7 4 5 7 6 5 6 7 6 8 6 5 3 1 2 2 1 3 1 2 2 1 5 10 11 11 11 5 2 6 7 7 7 7 6 4 4 6 7 6 6 6 7 6 6 8 9 10 12 13 14 16 18 21 23 24 24 24 22 18 18 20 21 20 20 20 19 19 21 21 20 20 22 24 25 26 27 27 26 26 27 27 28 28
4 6 4 4 6 9 7 3 6 8 6 5 4 5 3 2 3 2 1 2 1 2 1 1 4 9 9 10 9 5 4 5 4 6 7 7 7 5 5 5 6 6 6 5 5 4 4 5 6 8 11 14 15 15 17 19 20 21 24 25 23 20 18 18 20 21 19 19 18 17 17 16 16 18 20 22 23 24 24 24 25 25 26 28 28 29
6 2 3 6 7 10 6 2 7 8 4 3 3 5 3 2 2 2 3 2 1 1 1 1 4 8 7 6 4 1 3 4 4 5 6 5 6 7 6 5 5 7 6 5 4 3 3 3 2 5 8 12 14 15 17 18 19 20 22 23 22 21 19 16 18 20 19 17 18 18 18 16 16 18 20 20 21 22 22 22 23 24 25 26 26 27
3 3 2 4 5 9 8 5 7 7 3 0 2 4 3 5 3 1 4 4 1 1 1 2 5 5 3 3 2 2 2 2 2 2 2 2 4 5 4 3 3 5 5 5 3 3 3 3 2 1 5 8 10 12 15 17 17 18 19 19 20 21 19 17 16 17 18 18 19 19 20 20 20 21 21 21 22 22 22 23 22 22 23 23 23 23
2 3 1 5 3 5 8 7 6 6 4 2 3 2 2 7 6 4 6 5 3 3 1 2 5 3 1 2 3 1 1 1 1 1 2 2 1 1 1 1 1 1 2 3 3 3 2 2 2 2 2 4 6 8 11 14 15 16 16 16 17 18 18 18 15 13 14 17 19 19 19 18 18 19 19 19 20 20 21 23 23 23 24 24 25 24
3 1 1 5 7 6 6 6 4 4 4 3 2 2 3 7 9 8 7 4 2 2 1 1 4 2 0 2 3 1 1 3 2 2 4 3 3 3 2 2 2 2 1 0 1 2 2 2 3 4 5 5 4 4 7 9 12 13 13 13 13 13 14 15 12 11 12 13 15 16 17 16 15 16 16 16 16 16 17 18 20 22 22 24 26 27
4 4 1 3 6 7 6 5 4 5 5 3 1 3 7 8 8 8 6 2 0 1 1 0 2 3 3 1 2 0 2 4 3 3 4 4 4 4 4 4 3 3 2 1 2 3 3 4 4 5 6 8 7 6 5 6 7 8 9 9 9 8 9 9 8 9 10 11 12 13 14 15 16 17 16 14 14 15 15 16 18 19 18 20 23 24
3 5 5 6 6 6 4 1 2 4 3 1 0 3 5 6 6 4 3 2 2 1 3 1 3 4 4 1 2 1 3 4 2 3 4 4 5 5 5 5 5 4 3 3 3 4 4 5 6 7 9 11 11 11 10 9 8 8 8 8 7 7 6 6 7 9 10 11 11 11 13 14 15 15 14 14 16 17 17 17 17 17 16 17 19 21
1 2 2 3 4 4 2 4 2 1 2 3 5 6 6 5 5 3 2 3 2 3 4 2 2 4 4 2 2 1 2 5 4 3 3 3 4 5 5 6 5 5 4 3 4 5 6 6 7 10 12 13 14 14 14 13 12 12 11 11 10 9 8 7 7 8 9 10 10 10 11 11 11 11 11 12 14 15 17 19 18 17 17 19 20 21
0 0 2 1 0 3 4 5 4 3 4 8 7 7 8 5 3 3 2 2 1 4 2 2 3 3 3 2 2 2 2 4 6 5 4 4 5 5 5 5 5 5 4 4 5 7 8 8 9 12 13 14 15 15 15 15 15 14 14 12 11 10 9 8 8 8 7 8 8 8 8 9 9 9 9 11 12 12 14 17 18 16 17 18 19 21
2 2 0 1 1 2 5 7 6 3 3 4 4 6 7 3 1 2 2 0 4 3 1 3 3 3 4 2 1 0 1 1 5 8 8 7 7 5 5 4 4 4 4 5 5 6 8 9 10 12 13 15 16 17 17 17 16 16 14 13 11 10 9 7 6 5 5 5 6 7 7 8 8 9 9 10 11 11 11 13 13 13 14 15 16 18
3 2 1 2 1 2 4 7 5 2 1 1 5 8 6 3 2 3 2 2 4 1 2 2 2 3 6 4 1 1 3 3 4 7 9 9 8 6 5 4 3 3 4 4 5 5 6 7 8 9 11 15 17 18 18 17 17 17 16 14 13 12 10 9 7 6 4 3 3 4 6 7 7 8 9 9 10 10 10 11 11 12 12 13 13 14
3 1 1 3 2 3 3 5 5 4 5 5 7 7 5 4 4 5 3 1 3 0 2 2 1 2 4 4 4 5 5 4 3 4 3 5 6 5 4 3 3 4 3 4 4 5 6 7 8 9 11 15 18 19 19 19 18 18 17 16 15 14 11 10 9 7 5 4 3 2 3 5 6 7 8 9 10 10 10 10 11 11 12 13 13 13
4 3 3 3 2 2 2 2 1 5 5 3 1 1 3 3 3 4 2 1 1 2 2 1 1 3 2 1 1 1 3 1 1 1 1 0 1 1 1 1 2 4 3 3 4 5 7 7 8 9 11 16 19 20 21 21 19 19 18 17 16 14 12 11 9 8 6 4 3 1 1 2 4 5 6 7 8 8 9 9 10 11 11 12 13 13
2 1 1 1 1 1 2 2 2 5 5 1 1 1 2 1 2 2 1 1 1 1 2 3 3 3 1 0 1 1 1 0 0 0 1 2 2 2 3 3 3 4 3 3 4 6 7 7 8 9 10 15 19 21 21 21 20 20 19 18 17 15 13 12 10 9 7 6 4 3 1 1 2 3 3 4 5 6 7 8 9 11 11 12 13 14
2 1 2 1 0 1 1 2 2 1 3 2 2 3 2 1 4 4 1 2 1 3 2 3 3 2 2 3 2 2 2 2 2 3 4 5 5 5 5 5 4 4 4 3 4 5 6 7 8 9 10 14 19 21 21 21 21 21 20 19 18 17 15 14 13 11 10 8 7 6 5 4 3 2 2 2 2 3 4 5 7 8 10 10 12 13
3 3 2 1 2 2 1 1 2 2 0 2 3 5 3 1 1 2 1 2 0 3 1 2 4 3 3 3 3 4 6 5 5 7 7 7 7 7 6 5 5 4 4 4 5 5 6 7 8 10 12 15 18 20 21 21 22 21 21 20 19 19 18 17 16 15 14 12 11 10 9 8 7 6 5 5 4 4 4 4 5 6 8 9 10 11
1 3 2 1 1 2 1 2 3 2 2 1 1 3 3 2 2 2 2 2 2 3 2 2 2 3 5 4 4 8 11 9 9 9 9 10 10 9 8 7 6 5 4 4 5 4 5 6 7 9 11 14 18 19 20 21 21 21 21 21 21 20 19 18 18 18 17 16 15 14 13 12 11 10 9 9 8 8 8 8 8 9 9 9 9 10
1 1 2 1 1 0 0 3 5 4 2 2 2 2 0 1 2 2 2 1 3 3 2 1 1 3 6 5 7 12 14 13 12 11 11 13 12 10 8 8 7 6 5 5 4 4 5 7 7 9 11 14 17 19 20 21 21 21 21 21 21 21 20 19 19 19 18 18 17 16 15 14 14 13 13 12 12 12 12 12 12 11 12 11 11 11
1 1 2 2 1 2 3 2 4 5 4 3 4 5 3 1 1 1 1 1 1 3 2 2 2 3 2 3 6 8 9 11 13 12 11 12 12 10 8 8 7 6 6 5 5 5 6 7 8 9 13 16 18 19 20 20 20 21 21 21 21 21 21 21 20 20 19 19 18 18 17 17 16 16 15 15 15 15 15 15 14 14 14 13 13 13
1 1 4 4 2 3 2 1 2 2 1 2 3 5 5 4 3 3 4 1 1 1 1 1 3 3 1 1 2 1 3 7 11 13 12 10 11 10 7 7 7 6 6 5 5 5 6 7 8 9 12 15 17 18 19 20 20 20 20 20 20 21 21 20 20 20 19 19 18 18 18 17 17 16 16 16 16 17 17 17 16 16 16 16 15 15
1 3 4 3 2 1 2 2 1 2 2 1 1 1 3 3 4 5 5 3 3 1 1 1 2 3 1 1 2 1 1 2 4 9 12 10 9 9 7 7 6 5 6 5 5 5 6 7 8 9 11 14 16 17 18 19 20 19 19 19 19 20 19 19 19 19 19 18 18 17 17 16 16 16 16 17 17 18 18 17 17 17 17 18 17 17
2 3 4 3 1 0 1 1 1 1 1 2 3 2 2 3 2 1 1 2 4 4 3 2 4 3 2 1 2 2 1 1 1 5 11 11 8 8 8 7 6 5 6 5 5 6 6 7 7 8 9 10 12 15 16 17 18 18 18 18 19 18 18 17 18 18 18 18 17 17 16 16 16 16 17 18 18 18 18 17 18 18 18 18 18 18
3 3 5 4 3 2 1 2 2 2 3 4 3 2 3 3 4 4 1 1 2 5 5 5 6 3 2 1 1 1 2 4 4 5 8 9 8 8 7 6 6 7 7 6 6 6 7 7 7 7 7 8 10 12 13 15 16 17 17 17 17 17 16 16 16 17 17 17 17 17 17 17 17 18 18 19 18 18 18 18 18 17 18 18 18 18
4 3 5 6 6 5 6 7 5 5 4 2 2 5 6 7 7 4 2 2 4 4 5 7 7 1 1 1 2 3 5 7 8 6 4 5 6 7 7 7 7 7 7 8 7 6 6 6 6 7 7 8 9 10 10 11 14 16 17 16 15 15 15 15 16 17 17 17 17 18 18 18 18 19 19 19 19 19 19 19 19 18 19 19 19 19
2 2 5 8 9 9 9 8 4 5 6 6 8 8 8 9 8 4 3 4 5 3 4 9 7 2 3 3 3 5 9 10 9 9 8 7 7 7 7 7 7 6 6 7 6 6 6 6 5 6 6 7 8 10 10 10 12 15 16 15 14 13 14 14 15 16 17 17 18 18 19 19 19 19 20 20 20 21 21 20 20 20 20 20 20 20
2 4 8 10 11 7 3 3 4 6 8 11 11 9 9 9 10 8 8 9 5 5 7 10 6 7 7 6 6 7 9 9 10 12 13 11 9 7 6 6 6 6 6 5 6 7 7 6 5 5 5 5 8 10 9 8 9 12 14 14 13 13 13 14 15 16 16 17 18 19 19 19 19 20 21 21 22 23 23 23 23 23 23 23 23 22
4 7 7 9 11 5 3 2 4 6 6 7 8 10 11 11 12 14 15 12 8 7 12 7 8 12 10 7 9 10 11 13 14 13 11 9 8 7 7 8 8 8 7 7 7 6 6 5 5 4 4 5 7 8 6 5 7 11 13 13 13 13 13 14 15 16 16 17 17 18 18 19 20 20 21 22 23 24 25 25 25 25 26 26 26 26
3 5 4 7 10 5 3 1 2 3 4 4 6 10 12 12 14 17 17 14 11 13 11 3 7 13 9 7 9 10 9 8 7 6 6 8 9 8 9 10 10 9 9 8 8 7 6 5 4 4 3 4 4 4 3 3 6 10 12 13 12 12 12 13 14 15 15 16 17 17 18 19 20 20 21 22 23 24 25 25 26 26 27 27 27 28
3 3 4 5 6 3 3 2 1 2 2 4 4 6 10 12 14 16 17 15 12 13 8 3 4 10 4 4 4 4 3 3 5 7 9 10 10 10 10 11 10 9 9 8 8 7 6 6 5 4 3 3 4 3 3 3 5 10 12 12 12 11 12 13 14 14 15 15 17 18 19 20 21 22 23 23 24 25 26 26 27 27 28 28 29 29
3 2 2 4 5 4 1 2 3 4 2 1 3 7 12 13 14 13 11 9 11 14 8 3 6 8 4 5 2 1 4 6 8 11 10 9 9 10 11 10 10 10 9 9 9 8 7 7 7 6 6 5 5 4 4 3 7 10 11 11 11 11 12 12 14 15 15 16 18 19 21 22 23 24 25 25 26 27 27 27 28 29 30 31 31 32
4 4 3 4 8 3 2 1 5 6 2 4 7 12 16 15 12 8 3 4 11 13 9 7 9 5 6 8 6 4 6 9 10 10 9 8 9 8 9 9 9 10 10 9 9 8 8 8 8 7 7 6 6 5 3 6 9 10 10 11 11 11 12 13 14 16 16 17 19 20 21 22 23 24 25 26 27 28 29 29 30 31 32 33 33 33
5 6 4 4 5 2 1 1 4 4 7 8 6 10 15 15 11 8 7 11 13 11 9 8 5 2 6 9 9 8 8 9 9 8 6 6 7 7 8 8 8 8 8 8 8 8 8 8 8 7 7 7 5 5 6 8 10 9 10 11 11 11 12 13 14 16 17 18 20 21 22 23 24 25 26 27 28 29 30 31 32 32 33 34 34 34
7 6 3 1 2 2 1 2 5 7 9 5 1 1 7 11 13 13 14 14 13 12 12 11 7 5 8 8 7 7 6 4 5 6 4 4 6 8 8 8 8 9 9 9 8 9 9 9 9 9 8 7 6 8 9 9 10 10 10 11 11 11 12 13 15 17 18 20 21 23 24 25 26 27 29 30 31 32 32 32 33 34 34 35 35 35
7 6 3 2 2 3 3 6 7 4 3 1 1 1 2 5 9 11 12 10 9 11 11 13 13 9 7 6 3 2 1 2 1 3 3 3 5 7 7 8 10 10 10 10 10 11 11 11 11 11 10 9 9 9 10 10 10 10 10 12 11 11 12 14 17 19 21 23 24 26 27 28 29 30 31 32 32 33 34 34 35 35 35 36 36 37
5 6 4 4 3 2 4 6 3 4 4 4 4 3 4 6 9 10 9 9 10 12 12 14 16 9 6 4 2 3 3 2 2 4 4 4 5 5 4 6 10 11 11 12 13 14 14 13 13 13 12 11 10 10 10 9 10 10 11 12 12 13 14 17 20 22 24 25 26 28 28 29 30 31 32 33 33 34 35 35 36 36 36 37 38 39
2 3 4 5 4 2 3 4 2 4 9 7 3 4 5 6 10 12 8 8 9 12 13 15 15 9 6 4 3 4 4 3 5 5 5 6 6 4 5 8 12 14 15 16 16 16 16 15 15 14 12 11 10 9 9 9 10 11 12 12 13 14 17 19 21 23 24 25 26 26 27 28 29 30 31 32 33 34 35 36 36 36 36 37 39 40
2 1 2 4 4 4 5 5 5 8 8 3 3 5 5 6 8 9 5 7 5 8 11 14 11 7 7 7 6 6 5 5 8 6 6 8 7 8 9 10 13 15 16 17 17 16 17 16 15 13 11 11 10 8 8 9 9 10 12 13 14 15 18 20 21 22 22 22 23 23 24 25 27 28 30 31 33 34 35 36 36 37 37 38 39 41
3 1 2 6 6 6 7 6 5 5 4 2 3 4 5 8 11 9 5 7 4 6 10 13 10 8 10 10 7 7 8 9 6 3 8 11 9 9 10 11 13 15 16 17 17 17 17 16 14 13 11 10 9 8 8 8 9 10 12 13 14 16 18 18 18 19 19 20 20 21 22 24 26 27 29 31 32 34 34 35 36 37 38 38 39 40
2 2 3 6 7 6 7 6 4 3 3 3 3 2 5 8 9 8 6 3 4 7 8 10 13 13 12 9 7 7 7 4 1 5 11 12 11 9 10 14 17 17 18 18 17 17 17 16 14 13 11 9 7 7 7 7 9 10 11 13 14 15 16 16 16 17 18 19 20 21 22 24 25 27 29 30 32 34 35 35 36 37 37 38 39 40
4 4 3 4 6 5 5 4 4 4 3 4 4 2 3 5 6 6 3 1 2 5 4 7 11 10 8 8 7 5 2 3 5 9 11 11 11 11 12 15 18 18 18 17 16 16 17 15 14 12 10 8 6 6 7 7 8 10 11 12 12 13 14 15 16 17 19 20 21 22 23 24 26 27 29 30 31 33 35 36 36 37 37 36 37 37
6 6 4 5 6 3 3 5 5 4 2 8 9 3 3 4 2 2 2 2 1 2 3 5 6 4 5 7 6 3 4 6 8 10 10 9 10 12 13 14 15 15 15 15 14 13 14 14 13 11 9 7 6 6 7 7 8 9 10 10 11 12 14 15 16 17 19 20 22 23 25 26 27 28 29 31 31 32 34 36 36 37 36 34 33 33
6 6 5 6 6 5 6 8 6 1 3 9 9 6 7 6 2 1 2 2 0 2 3 3 3 4 6 6 6 5 6 7 9 10 10 10 10 11 12 12 13 13 14 13 12 11 12 13 12 10 8 7 6 7 7 8 8 8 9 9 10 12 13 15 16 17 19 21 23 24 26 27 28 29 29 30 31 32 34 35 35 35 34 30 27 26
5 4 3 3 4 4 4 4 2 1 3 6 3 1 5 5 2 2 1 1 1 3 3 3 3 5 5 5 7 6 5 8 10 10 10 10 9 10 11 12 13 13 13 12 11 9 10 11 11 10 8 7 6 7 7 7 7 7 8 9 10 12 13 15 16 18 20 23 24 25 27 28 29 30 30 31 31 31 32 32 32 31 30 27 23 20
1 0 1 1 2 2 3 4 3 1 2 3 1 1 2 2 1 2 2 1 2 4 3 2 4 6 6 6 7 6 6 9 11 9 9 10 9 10 11 12 12 13 13 12 10 8 8 9 9 8 8 6 5 6 6 6 7 7 7 8 10 11 12 14 16 18 20 22 24 26 27 28 30 31 31 31 30 30 30 28 26 28 29 26 21 19
1 1 1 1 3 4 5 7 7 4 2 3 2 1 2 3 2 2 3 2 2 2 3 2 3 6 7 6 8 9 9 11 12 9 8 9 9 10 11 12 11 11 11 11 9 7 8 8 7 6 6 6 5 5 5 5 6 5 6 8 10 10 11 14 17 19 20 22 23 25 25 27 30 32 32 30 29 28 27 24 22 23 24 23 20 20
1 3 3 3 4 4 4 4 3 2 1 2 2 2 3 4 4 2 1 1 1 1 2 2 3 6 7 7 7 10 11 11 12 11 10 8 8 9 10 11 11 11 11 9 8 7 7 7 6 5 4 4 4 5 4 4 4 5 7 8 8 9 12 16 18 19 19 21 23 24 24 25 28 29 29 28 26 24 23 22 20 21 24 25 22 22
1 3 3 3 4 3 5 3 1 1 2 3 5 6 5 3 3 2 1 1 2 3 4 4 2 3 5 6 7 9 11 10 9 10 10 8 7 9 10 11 11 11 11 9 7 7 7 5 4 3 2 2 2 3 3 4 5 7 7 6 7 10 14 17 18 17 17 19 21 20 20 21 22 22 22 24 23 23 23 23 22 23 28 33 30 24
2 4 3 2 4 5 6 4 4 1 4 5 6 8 7 4 3 4 3 3 4 5 6 6 4 2 2 4 6 9 10 9 9 9 9 8 8 10 12 13 13 12 11 10 8 7 6 4 3 2 1 0 1 2 3 5 6 5 5 6 9 12 14 15 16 15 14 15 15 14 15 17 17 17 18 20 21 24 27 28 26 24 26 33 37 33
3 4 3 3 4 4 4 1 2 3 4 2 1 2 5 6 6 5 5 5 5 6 7 7 7 5 4 3 5 8 8 9 12 12 9 7 10 13 13 13 13 12 11 10 9 7 5 5 4 3 2 1 1 3 4 5 4 4 6 8 9 11 13 14 14 12 11 12 13 14 16 17 18 18 19 19 20 22 25 30 33 32 29 28 31 35
Wind_Direction
220 165 179 183 174 176 172 138 93 104 141 148 144 136 144 162 154 100 86 61 1 228 215 229 256 270 271 273 274 259 143 258 266 262 260 253 251 250 251 261 262 260 268 297 300 283 278 272 261 251 244 239 238 238 235 233 234 231 225 223 227 228 225 225 225 226 226 226 229 231 232 235 237 241 244 246 247 248 250 253 253 254 254 254 256 254
231 195 183 166 145 140 130 103 97 100 115 136 150 154 157 202 121 78 80 75 25 250 182 111 272 267 265 269 269 254 209 251 259 261 265 265 263 262 262 266 269 272 281 295 295 289 285 280 263 248 242 236 232 230 229 229 231 229 226 225 224 224 226 226 225 227 228 227 226 228 232 236 240 241 243 245 248 249 251 253 251 250 250 249 251 249
204 204 151 109 103 98 94 103 104 93 108 129 142 158 168 170 126 102 112 79 32 262 192 114 269 271 265 265 269 270 262 260 269 268 272 280 279 278 275 277 284 287 291 295 296 297 294 292 269 245 238 235 232 228 230 230 228 227 228 228 224 221 224 228 227 226 229 230 229 232 235 238 241 242 244 246 250 252 250 252 251 250 251 250 250 252
187 204 98 127 141 123 107 113 114 103 111 122 132 157 160 148 154 165 156 134 47 2 328 283 271 277 267 259 259 285 279 276 287 264 262 269 268 278 286 289 288 286 293 300 306 315 319 327 298 245 233 233 232 229 231 230 226 226 228 229 226 224 223 226 229 227 227 231 233 236 237 238 243 245 247 248 251 252 252 254 255 253 251 249 249 251
143 7 71 147 163 142 133 145 149 150 146 89 190 167 141 164 190 21 120 137 130 146 348 312 266 260 252 244 183 133 260 266 295 246 214 241 249 271 283 281 273 275 288 296 317 342 344 348 354 256 224 221 225 229 231 231 229 229 231 231 232 231 227 224 227 227 226 227 232 236 236 238 243 248 250 250 252 253 253 254 255 256 256 255 256 254
81 5 174 144 141 141 142 158 179 181 162 180 222 198 162 169 154 103 128 149 182 190 80 340 260 222 125 238 186 98 330 120 38 49 82 47 357 294 304 5 342 275 276 277 308 337 351 3 43 78 129 180 201 220 224 224 224 226 230 232 233 232 231 229 226 224 223 223 229 231 231 233 237 244 248 247 251 256 257 257 256 256 257 257 258 258
92 58 242 148 145 142 149 168 188 195 167 172 202 146 140 147 134 136 155 172 198 187 82 338 263 235 242 217 154 22 0 122 97 68 60 35 31 28 30 29 18 35 33 247 12 18 40 50 74 77 78 105 136 191 207 209 209 213 217 220 224 225 230 232 224 217 218 219 225 228 230 234 237 243 248 249 252 254 255 258 260 258 257 257 257 257
116 130 178 144 145 148 163 176 186 195 177 160 158 133 139 136 136 148 156 169 26 59 144 58 324 279 260 194 121 316 163 127 109 83 59 36 40 34 37 35 25 26 15 29 64 62 64 58 65 69 69 83 94 111 137 161 175 187 195 198 204 210 220 223 212 206 209 213 220 223 228 234 236 240 247 251 251 252 253 257 261 262 261 261 261 259
113 162 173 154 155 167 177 170 166 182 164 105 142 129 126 115 118 133 131 115 61 275 210 116 18 265 245 183 132 231 176 154 136 92 61 38 39 38 49 45 37 38 23 19 44 52 54 48 56 69 75 82 90 99 107 118 128 137 150 155 159 168 182 188 188 196 201 206 212 216 222 228 234 240 246 251 252 255 260 263 267 270 267 266 268 266
2 199 188 159 168 165 112 27 357 277 78 138 153 111 91 80 80 80 89 110 105 247 220 104 13 261 247 210 168 200 217 188 160 104 66 56 51 46 54 51 46 54 47 42 47 49 49 47 60 75 79 81 87 94 101 107 112 117 123 127 134 142 151 162 173 187 197 204 208 214 223 229 238 247 253 259 261 263 266 269 270 270 269 269 270 270
332 352 334 352 89 131 106 63 20 352 102 142 154 111 94 75 63 66 44 78 191 239 208 57 350 286 260 241 182 207 251 181 151 132 112 98 88 73 64 56 51 56 58 60 64 65 64 62 68 75 78 79 85 92 98 103 107 111 116 121 127 135 143 153 166 182 195 206 213 221 229 237 246 255 261 265 269 271 273 274 273 271 272 274 273 273
89 109 127 50 49 136 120 79 45 39 118 146 162 129 112 84 84 120 70 130 225 224 88 32 333 272 239 242 83 0 294 168 145 137 133 122 103 87 75 63 52 51 57 66 69 72 73 70 69 71 75 81 87 92 95 99 104 107 109 112 115 116 120 126 138 158 177 197 215 228 238 246 251 256 262 266 270 274 275 278 278 276 276 277 278 277
101 96 58 63 271 229 140 103 75 51 248 215 157 151 147 129 160 195 178 204 232 234 47 9 329 252 245 258 272 179 160 158 136 122 126 125 116 109 93 73 60 51 52 66 69 68 69 67 66 68 73 80 84 88 93 96 99 102 103 105 105 101 102 105 108 116 127 155 195 225 240 250 256 259 263 266 271 274 275 279 281 282 281 281 282 280
133 115 174 137 170 243 194 140 141 179 203 185 162 165 168 146 172 197 174 232 262 179 55 349 320 240 254 266 238 193 153 144 123 94 96 110 112 109 92 69 68 69 61 66 70 66 64 62 63 66 70 79 84 87 92 94 96 98 99 100 99 97 98 101 104 110 116 130 159 198 231 247 258 265 271 273 275 277 279 280 279 280 280 279 281 281
169 178 181 159 147 189 209 221 144 136 155 182 157 154 171 160 189 195 176 215 213 102 100 150 234 220 203 46 287 156 99 77 63 47 349 0 86 80 90 106 100 92 82 71 72 69 65 64 66 68 72 81 87 90 92 94 96 97 98 98 97 95 96 97 99 103 106 113 125 157 231 259 271 278 284 288 292 294 292 289 287 285 283 283 283 283
171 172 70 37 278 185 177 295 358 104 128 165 7 74 195 182 121 117 72 95 103 83 145 181 242 258 244 303 319 6 47 278 163 119 198 174 160 163 143 132 118 104 96 82 81 78 71 69 71 73 77 83 88 90 92 94 96 97 97 96 96 94 93 94 94 94 95 96 92 87 78 13 320 307 307 310 312 310 307 304 300 298 296 295 295 294
161 102 10 4 117 45 348 302 343 98 150 148 165 179 186 60 100 114 112 60 0 253 182 171 239 258 245 231 184 143 174 170 153 177 177 155 150 156 146 137 132 117 104 87 80 82 77 75 74 73 77 84 88 90 91 93 96 97 97 96 95 95 94 94 94 94 93 92 91 87 83 77 67 48 26 15 353 332 323 315 308 307 308 306 305 303
159 116 22 354 103 71 313 236 60 20 70 141 173 168 138 78 77 118 156 101 180 247 189 170 233 232 203 205 130 143 179 179 174 177 163 151 159 162 156 150 141 125 116 101 89 87 82 79 78 77 79 85 90 91 93 95 96 97 98 97 96 95 94 94 95 96 95 94 93 89 85 81 76 69 59 54 47 37 28 -0 338 329 325 322 315 309
125 117 72 358 107 79 321 212 137 72 14 17 169 143 131 201 200 165 175 163 183 228 227 193 241 262 220 197 152 174 187 182 175 170 159 163 171 168 160 154 145 135 129 119 110 103 96 92 88 86 85 89 93 95 95 96 96 96 95 94 94 93 93 94 94 94 92 91 90 86 83 78 73 69 61 56 52 45 41 30 16 5 357 351 339 328
100 140 125 78 318 18 277 225 192 165 94 50 114 132 356 290 212 179 161 180 204 209 221 192 172 235 225 203 185 190 188 177 170 169 169 171 172 169 161 156 152 147 142 135 133 125 112 105 95 93 95 96 97 97 96 95 94 93 92 90 90 90 89 90 89 88 86 84 83 80 78 73 68 65 60 55 52 48 44 37 28 20 14 7 359 351
102 188 142 107 344 213 186 218 215 182 150 150 165 169 177 126 33 236 146 68 248 201 196 224 236 232 215 201 203 194 179 172 170 169 171 168 167 167 161 155 150 146 148 146 140 130 116 108 99 96 99 99 98 96 95 94 91 90 89 88 88 88 87 86 85 84 82 79 78 74 71 68 64 61 58 54 51 48 44 39 32 27 21 17 10 4
161 121 129 136 177 196 189 338 302 275 176 173 182 185 182 153 137 189 193 148 16 245 186 205 266 263 138 155 225 190 162 177 174 168 164 162 165 165 157 154 150 144 150 148 135 124 111 107 103 99 98 97 95 94 92 91 89 87 86 85 85 85 84 85 83 82 80 77 74 71 67 65 61 58 55 52 49 46 42 37 32 28 23 20 15 10
95 96 112 129 176 219 320 336 280 294 312 328 291 232 181 171 183 200 205 172 128 124 101 88 281 277 88 108 232 233 234 210 174 159 156 158 165 165 159 156 147 140 143 137 125 117 106 103 102 97 93 90 90 89 88 88 86 84 84 83 83 82 81 82 82 81 79 76 72 69 66 63 59 55 51 48 45 42 38 35 30 26 23 20 16 12
108 107 112 95 80 20 319 302 116 354 282 237 239 209 172 198 200 143 208 159 147 167 159 161 251 253 123 114 240 254 279 282 217 161 158 162 168 168 167 159 148 147 145 134 126 118 111 108 101 91 83 79 81 83 84 85 85 83 83 82 82 81 80 81 82 81 79 76 72 68 64 61 56 52 48 45 41 38 35 31 27 23 21 18 14 11
181 153 129 119 124 135 203 203 192 208 213 224 215 163 170 151 94 81 110 141 193 200 175 190 239 242 123 103 170 196 179 168 181 181 166 167 171 167 164 158 154 156 150 142 136 126 118 107 94 83 75 69 70 75 78 81 83 83 82 81 82 81 81 80 79 78 75 71 68 63 59 55 51 47 44 41 38 35 32 29 26 22 20 17 14 10
179 173 155 158 159 172 195 201 205 190 179 212 191 172 187 171 151 158 143 148 221 200 166 205 235 242 92 133 140 149 164 166 169 177 176 179 180 170 163 163 164 162 156 149 141 130 118 104 95 91 84 77 73 71 70 73 79 81 80 79 80 81 80 77 74 72 69 64 60 55 51 47 43 40 37 34 32 29 27 25 22 19 17 15 12 9
135 178 190 196 196 196 198 200 186 128 141 190 195 179 183 181 175 161 123 191 210 148 173 224 235 239 211 195 171 170 176 175 170 172 183 193 192 180 167 164 163 159 157 150 139 130 120 110 105 98 88 85 82 75 68 65 72 80 81 79 79 79 78 75 71 67 63 58 53 48 44 40 36 34 30 27 25 22 20 18 16 14 12 9 8 6
108 196 204 210 219 219 182 164 158 141 173 199 191 170 169 174 173 173 199 214 165 125 228 230 211 229 223 188 195 198 181 180 182 182 187 189 185 175 156 152 158 159 157 150 143 139 132 125 114 99 86 82 82 77 71 64 69 80 82 80 78 78 76 72 67 63 57 52 48 42 37 34 30 27 23 20 17 15 13 11 8 7 5 4 3 1
154 204 203 202 217 221 68 96 177 168 182 193 179 173 170 169 175 189 211 213 160 186 239 219 174 216 217 178 201 205 185 189 192 187 181 172 167 159 153 163 170 168 165 160 154 146 138 132 123 112 95 81 82 83 80 73 75 81 82 81 80 77 74 69 63 59 54 48 43 38 32 29 24 21 18 14 12 10 7 5 3 1 -0 359 357 356
181 201 175 185 212 208 82 54 205 161 163 173 179 180 171 171 185 197 213 215 194 215 237 161 177 223 212 172 205 210 194 192 174 156 160 165 168 169 174 181 178 171 170 166 159 152 143 136 132 129 112 99 102 105 106 94 84 86 84 81 80 76 71 67 60 55 50 44 38 33 29 25 21 17 14 11 9 7 4 1 360 357 356 355 353 352
219 195 132 153 206 207 92 57 61 109 167 169 165 179 177 182 195 206 218 215 210 228 232 120 237 249 210 156 211 203 166 136 132 163 183 184 180 179 184 186 178 173 173 167 159 154 149 146 151 158 160 161 157 147 148 132 95 88 84 77 75 72 67 62 56 50 45 38 32 28 24 20 16 12 10 7 4 3 1 358 357 354 352 352 350 349
191 185 96 131 198 215 79 103 125 91 73 136 175 193 190 194 201 207 216 206 203 218 213 170 257 254 170 148 195 155 158 179 186 188 189 188 187 187 189 184 177 177 174 166 162 159 159 165 171 176 178 180 177 170 167 125 89 82 79 73 70 67 63 58 50 43 38 32 26 21 17 13 10 7 4 2 359 357 356 354 353 351 349 347 347 346
169 164 131 169 199 207 32 113 137 108 109 227 223 205 196 201 205 194 200 214 207 210 202 201 234 232 140 157 187 185 188 203 206 195 188 193 193 190 191 183 176 178 172 165 165 164 167 170 170 172 174 176 180 174 137 91 81 78 75 71 65 60 58 51 42 36 30 25 20 15 12 8 5 2 358 356 354 352 351 350 348 347 345 343 342 341
168 168 158 180 196 169 39 165 141 155 218 229 226 204 194 194 189 177 203 217 208 206 213 223 238 143 144 178 192 193 199 207 211 203 191 192 186 182 192 189 176 170 162 159 162 162 162 161 158 165 170 167 159 130 95 78 78 78 73 67 60 55 51 42 35 29 22 18 14 9 6 2 359 357 353 351 350 348 347 346 344 343 341 338 338 336
161 168 163 151 152 120 99 167 175 208 227 230 324 241 189 181 179 192 217 220 206 206 219 235 242 192 182 198 196 195 202 201 214 216 196 187 184 176 180 183 173 165 160 159 160 156 156 157 158 163 160 144 119 96 84 75 77 80 70 61 55 49 43 34 26 20 14 12 8 4 2 359 356 354 351 348 347 345 344 342 341 339 338 335 334 333
158 160 143 118 132 120 142 186 201 233 258 229 317 302 154 154 170 198 231 234 212 206 213 230 235 209 183 201 194 146 130 120 241 246 195 182 195 186 181 180 173 167 160 154 152 152 156 158 156 152 140 119 102 91 81 73 76 75 62 52 47 39 31 24 18 12 9 6 4 1 359 355 352 350 348 346 344 342 341 340 338 337 336 333 331 330
163 159 151 169 189 159 171 200 237 332 306 236 220 191 164 155 160 182 227 241 214 200 201 221 231 209 166 185 173 82 94 123 263 256 187 177 207 204 183 158 150 144 138 139 144 148 150 149 142 135 123 108 96 88 80 73 70 65 53 43 36 27 21 17 12 8 5 3 0 357 355 351 348 346 344 342 341 339 338 337 336 335 334 332 329 328
168 172 169 186 194 145 167 202 217 257 249 234 191 158 171 177 170 175 209 243 216 192 193 213 223 199 157 165 162 134 134 171 237 237 178 170 187 162 116 117 129 132 133 138 143 143 140 137 131 125 115 102 91 82 76 69 61 54 45 35 27 20 15 12 8 4 1 359 356 352 349 345 342 340 338 337 336 335 334 333 332 331 330 329 327 325
99 52 165 188 185 156 181 203 198 218 240 227 151 165 172 166 148 145 202 252 218 174 189 206 209 182 166 178 168 149 156 201 231 225 159 155 160 139 126 123 124 128 135 140 142 139 135 131 123 116 107 94 84 72 67 62 53 47 39 29 21 15 11 8 4 359 355 352 348 345 341 338 335 334 333 332 331 330 329 328 327 326 325 325 323 321
124 120 179 198 197 180 193 215 219 229 250 212 172 177 161 149 137 139 208 248 190 163 189 193 187 186 191 182 160 163 189 212 231 192 135 136 134 126 128 129 129 131 133 133 133 131 129 126 116 105 95 85 74 63 61 55 45 41 35 25 17 11 7 2 355 349 345 340 337 335 332 330 329 329 329 328 327 326 325 324 323 322 321 320 320 318
166 181 195 203 203 192 197 216 247 256 237 203 189 170 151 151 156 179 214 221 157 175 186 177 184 198 195 173 161 186 204 213 109 114 125 129 127 123 120 122 127 131 129 129 129 126 123 118 109 98 88 79 70 61 56 49 41 38 31 21 14 6 358 349 342 337 333 330 329 328 328 328 327 326 326 326 325 323 321 321 321 319 319 318 317 315
182 185 192 199 201 202 203 215 256 265 223 150 119 112 173 176 187 202 210 49 154 178 167 178 195 197 180 171 182 191 152 88 102 119 126 130 129 127 125 123 125 125 125 127 128 126 122 114 104 97 89 81 74 63 53 46 41 35 26 17 8 353 341 335 331 328 325 324 324 325 326 326 325 325 324 323 324 322 319 319 319 318 317 316 314 312
174 171 183 194 191 187 193 202 224 258 202 131 119 114 231 219 198 168 115 42 331 162 149 190 204 182 168 180 182 152 109 115 125 123 123 127 124 126 133 133 128 126 125 124 125 126 124 115 105 100 95 85 73 60 48 40 36 29 20 10 351 334 327 324 321 321 320 321 324 325 326 326 325 325 325 324 323 322 319 318 318 317 316 315 313 310
181 176 184 196 189 178 191 203 208 204 164 160 150 165 205 202 150 91 136 122 208 198 179 198 202 188 189 179 154 141 134 133 136 134 131 132 130 130 132 129 125 126 124 121 121 124 122 115 108 102 93 78 63 50 38 29 26 19 8 352 330 320 320 319 319 323 324 325 327 327 327 327 326 326 326 325 325 324 321 320 320 317 316 314 311 306
208 190 175 188 193 191 201 212 216 88 177 190 160 140 213 201 120 89 156 115 168 203 191 191 190 184 184 160 141 144 148 145 148 146 138 136 136 132 128 127 126 125 123 119 117 119 118 114 109 101 86 66 52 43 30 19 14 3 350 334 321 321 325 326 327 329 328 328 329 329 329 328 327 328 328 328 328 326 323 321 319 316 314 312 308 302
286 176 99 123 188 247 262 237 236 265 226 216 195 39 281 279 65 135 191 213 217 195 179 187 180 166 163 155 142 144 158 153 147 144 139 136 134 130 127 126 124 124 126 122 116 117 118 114 110 102 83 61 44 35 24 9 358 349 336 326 327 333 335 332 330 328 328 328 329 330 331 331 329 330 330 329 329 327 323 320 316 311 309 307 302 297
294 185 149 149 181 203 226 225 224 224 203 206 220 246 283 275 244 189 200 240 257 206 181 174 146 144 151 154 148 150 158 153 146 145 144 138 137 139 136 129 126 127 128 125 121 124 125 118 110 96 77 56 32 17 13 2 352 349 344 343 347 345 334 325 325 326 328 330 331 332 332 331 331 331 329 328 328 325 319 314 309 304 302 298 297 297
234 169 169 203 203 204 230 236 238 254 207 191 216 244 250 238 221 202 209 279 357 81 113 108 120 141 154 165 159 150 152 158 155 150 149 147 141 140 138 131 127 127 127 128 129 129 125 118 107 89 70 49 15 358 5 12 8 10 12 5 353 333 321 322 328 330 330 332 334 334 332 330 330 330 327 324 322 318 312 308 303 297 294 291 290 291
122 170 178 199 205 237 266 246 135 1 276 212 207 221 230 226 203 171 119 122 129 121 118 111 110 151 163 168 161 145 146 160 160 145 143 146 141 137 136 133 129 129 130 131 132 132 129 122 111 99 78 36 357 345 6 32 32 28 21 356 321 316 323 331 335 334 331 332 332 331 329 326 324 322 319 316 313 309 305 301 296 291 292 295 292 283
173 185 172 173 193 226 248 217 149 181 247 226 214 216 208 183 163 160 162 174 177 167 148 127 100 59 94 144 159 155 148 152 155 148 141 140 140 139 137 135 132 131 132 135 138 139 136 134 138 144 136 93 333 350 30 41 36 19 339 314 317 328 336 340 337 331 328 329 325 321 320 318 314 311 309 308 306 306 305 303 297 286 282 290 297 293
209 199 174 185 209 231 258 228 154 221 253 272 327 233 184 167 170 183 189 188 180 174 165 150 137 131 125 133 163 168 154 144 151 152 138 128 139 141 139 140 138 133 135 143 147 145 146 154 162 159 143 130 34 36 42 32 7 322 306 319 336 341 341 341 336 327 323 322 318 314 313 309 305 304 302 299 298 300 301 303 304 300 289 281 286 292